Location: Austin
(30.3000°N, 97.7500°W)
Time: 11:09:49
(UTC-05:00)

Cosmos 2327 Rocket - Pass Details

Date: 26 May 2023
Orbit: 943 x 1008 km, 83.0° (Epoch: 30 May)

Event Time Altitude Azimuth Distance (km) Brightness Sun altitude
Exits shadow 22:34:39 43° 176° (S) 1,304 4.8 -23.7°
Maximum altitude 22:36:49 83° 94° (E) 954 4.3 -24.0°
Drops below altitude 10° 22:42:54 10° 7° (N) 2,665 7.3 -24.9°
Sets 22:45:23 0° 7° (N) 3,616 8.0 -25.3°
